sat.trackr.live / text

‹ back to catalog

STARLINK-2639

NORAD 48436 · 2021-040J

PAYLOAD ACTIVE UNKNOWN

§ Identity

Operator
Country
US
Launch date
2021-05-09
Launch site
AFETR
Launch vehicle
Mass (kg)
RCS (m²)

Purposes: comms

External: N2YO · Heavens-Above · Gunter

§ Orbital elements

Epoch: 2026-05-24T12:36:30.789504Z

Period
94.01 min
Inclination
53.1592°
Eccentricity
0.0000898
Mean motion
15.31744688 rev/d
Perigee alt
470.0 km
Apogee alt
471.2 km
Semi-major
6,848.7 km
B*
-1.9300e-4
RAAN
185.4383°
Arg perigee
83.8936°
Mean anomaly
276.2168°
Rev number
27,829

§ Raw data

STARLINK-26391 48436U 21040J   26144.52535636 -.00006357  00000+0 -19300-3 0  99922 48436  53.1592 185.4383 0000898  83.8936 276.2168 15.31744688278293

JSON: /api/v1/satellites/48436 · /tle

For live sub-satellite position, see the globe view (requires WebGL).

§ Visibility from observer

Set your observer location to see the next 7 days of passes ≥ 10°. The values pass through the URL so the page stays shareable.

No JS? Fill the form by hand. The geolocation button needs JavaScript.